Overview Statistics Trail Chart Weather Telemetry Raw packets
 

This is the latest recevied weather packets stored in our database for station/object KC4GS-13. If no packets are shown the sender has not sent any weather packets the latest 10 day(s).

<< 23 24 25 26 27 28 29 >>
Time Temp. Humidity Pressure Rain* Wind** Luminosity Snow
1788462336 36.67° C 48% 1017.6 hPa 0 mm - 638 W/m² -
1788462031 37.22° C 50% 1017.7 hPa 0 mm - 633 W/m² -
1788461726 36.67° C 49% 1017.8 hPa 0 mm - 528 W/m² -
1788461421 36.11° C 50% 1017.9 hPa 0 mm - 649 W/m² -
1788461118 36.11° C 51% 1017.8 hPa 0 mm - 708 W/m² -
1788460818 36.11° C 51% 1017.9 hPa 0 mm - 703 W/m² -
1788460517 35.56° C 51% 1017.9 hPa 0 mm - 677 W/m² -
1788460212 36.11° C 51% 1018.1 hPa 0 mm - 89 W/m² -
1788459910 36.11° C 51% 1018.1 hPa 0 mm - 658 W/m² -
1788459607 36.11° C 50% 1018.2 hPa 0 mm - 692 W/m² -
1788459300 35.56° C 52% 1018.4 hPa 0 mm - 727 W/m² -
1788458999 36.11° C 50% 1018.3 hPa 0 mm - 725 W/m² -
1788458695 36.11° C 50% 1018.1 hPa 0 mm - 693 W/m² -
1788458394 35.56° C 51% 1018.2 hPa 0 mm - 680 W/m² -
1788458088 35.56° C 52% 1018.2 hPa 0 mm - 711 W/m² -
1788457787 36.11° C 51% 1018.2 hPa 0 mm - 125 W/m² -
1788457483 35.56° C 51% 1018.4 hPa 0 mm - 729 W/m² -
1788457183 35.56° C 52% 1018.3 hPa 0 mm - 759 W/m² -
1788456878 36.11° C 52% 1018.6 hPa 0 mm - 766 W/m² -
1788456573 36.11° C 53% 1018.4 hPa 0 mm - 731 W/m² -
1788456268 35.56° C 54% 1018.6 hPa 0 mm - 588 W/m² -
1788455964 34.44° C 56% 1018.3 hPa 0 mm - 212 W/m² -
1788455659 34.44° C 56% 1018.3 hPa 0 mm - 117 W/m² -
1788455359 35° C 54% 1018.7 hPa 0 mm - 95 W/m² -
1788455053 34.44° C 54% 1019.1 hPa 0 mm - 144 W/m² -

* Rain latest hour (hover to see other rain measurements)
** Current wind speed in m/s (hover to see current wind gust speed)